Weather History for Bismarck, ND

Change the Weather History Date:

Wednesday, July 10, 2013

  Actual Average Record
Temperature  
Mean Temperature 66 °F 70 °F  
Max Temperature 82 °F 84 °F 110 °F (1936)
Min Temperature 49 °F 57 °F 43 °F (1951)
Degree Days  
Heating Degree Days 0 1  
Month to date heating degree days 0 10  
Since 1 June heating degree days 86 103  
Since 1 July heating degree days 0 10  
Cooling Degree Days 1 6  
Month to date cooling degree days 61 55  
Year to date cooling degree days 157 155  
Since 1 June cooling degree days 145 138  
Growing Degree Days 15 (Base 50)    
Moisture  
Dew Point 55 °F    
Average Humidity 70    
Maximum Humidity 100    
Minimum Humidity 39    
Precipitation  
Precipitation 0.00 in 0.10 in 1.36 in (1935)
Month to date precipitation 0.38 0.99  
Year to date precipitation 13.69 9.63  
Snow  
Snow 0.00 in 0.00 in 0.00 in (2002)
Month to date snowfall 0.0 0.0  
Since 1 June snowfall 0.0 0.0  
Since 1 July snowfall 0.0 0.0  
Snow Depth 0.00 in    
Sea Level Pressure  
Sea Level Pressure 30.08 in    
Wind  
Wind Speed 4 mph (SSW)    
Max Wind Speed 12 mph    
Max Gust Speed 15 mph    
Visibility 9 miles    
Events      
T = Trace of Precipitation, MM = Missing Value Source: NWS Daily Summary

Daily Weather History Graph

Daily Weather History Graph

Search for Another Location

Airport:

Trip Planner

Search our weather history database for the weather conditions in past years. The results will help you decide how hot, cold, wet, or windy it might be!

Date:

Astronomy

Jul. 10, 2013 Rise Set
Actual Time 5:59 AM CDT 9:36 PM CDT
Civil Twilight 5:21 AM CDT 10:15 PM CDT
Nautical Twilight 4:29 AM CDT 11:06 PM CDT
Astronomical Twilight 3:19 AM CDT 12:15 AM CDT
Moon 8:34 AM CDT (7/10) 10:33 PM CDT (7/10)
Length of Visible Light 16h 53m
Length of Day
15h 37m
Waxing Crescent, 5% of the Moon is Illuminated
Jul 10
Waxing Crescent
Jul 15
First Quarter
Jul 22
Full
Jul 29
Last Quarter
Aug 6
New

Hourly Weather History & Observations

Time (CDT) Temp. Heat Index Dew Point Humidity Pressure Visibility Wind Dir Wind Speed Gust Speed Precip Events Conditions
12:52 AM 57.9 °F - 53.1 °F 84% 30.13 in 10.0 mi North 3.5 mph - N/A   Clear
1:52 AM 55.0 °F - 53.1 °F 93% 30.13 in 9.0 mi WSW 3.5 mph - N/A   Clear
2:52 AM 54.0 °F - 52.0 °F 93% 30.14 in 8.0 mi SSW 4.6 mph - N/A   Clear
3:52 AM 52.0 °F - 51.1 °F 97% 30.14 in 6.0 mi Calm Calm - N/A   Clear
4:52 AM 53.1 °F - 51.1 °F 93% 30.15 in 7.0 mi West 3.5 mph - N/A   Clear
5:52 AM 53.1 °F - 51.1 °F 93% 30.14 in 6.0 mi West 3.5 mph - N/A   Clear
6:52 AM 53.1 °F - 50.0 °F 89% 30.15 in 6.0 mi SSW 3.5 mph - N/A   Clear
7:52 AM 55.9 °F - 52.0 °F 87% 30.15 in 6.0 mi WSW 3.5 mph - N/A   Clear
8:52 AM 60.1 °F - 54.0 °F 80% 30.15 in 8.0 mi Calm Calm - N/A   Clear
9:52 AM 66.0 °F - 55.9 °F 70% 30.14 in 9.0 mi SW 6.9 mph - N/A   Clear
10:52 AM 70.0 °F - 55.9 °F 61% 30.13 in 10.0 mi South 4.6 mph - N/A   Clear
11:52 AM 72.0 °F - 55.0 °F 55% 30.12 in 10.0 mi WNW 3.5 mph - N/A   Clear
12:52 PM 73.9 °F - 54.0 °F 50% 30.10 in 10.0 mi Calm Calm - N/A   Clear
1:52 PM 77.0 °F - 55.0 °F 47% 30.09 in 10.0 mi North - - N/A   Clear
2:52 PM 78.1 °F - 55.9 °F 46% 30.06 in 10.0 mi SSW 8.1 mph - N/A   Clear
3:52 PM 80.1 °F 80.1 °F 55.0 °F 42% 30.04 in 10.0 mi Variable 3.5 mph - N/A   Clear
4:52 PM 81.0 °F 80.7 °F 55.0 °F 41% 30.02 in 10.0 mi Calm Calm - N/A   Clear
5:52 PM 81.0 °F 80.5 °F 54.0 °F 39% 30.00 in 10.0 mi Calm Calm - N/A   Clear
6:52 PM 80.1 °F 80.2 °F 55.9 °F 43% 29.99 in 10.0 mi SSE 4.6 mph - N/A   Clear
7:52 PM 78.1 °F - 59.0 °F 52% 29.99 in 10.0 mi SE 8.1 mph - N/A   Clear
8:52 PM 73.0 °F - 62.1 °F 68% 29.99 in 10.0 mi ESE 4.6 mph - N/A   Clear
9:52 PM 69.1 °F - 60.1 °F 73% 29.99 in 10.0 mi East 8.1 mph - N/A   Clear
10:52 PM 66.9 °F - 59.0 °F 76% 29.99 in 10.0 mi East 4.6 mph - N/A   Clear
11:52 PM 64.9 °F - 57.9 °F 78% 29.99 in 10.0 mi ESE 4.6 mph - N/A   Clear